Regional Weather Roundup
Issued by NWS

Home | Current Version | Previous Version | Text Only | Print | Product List | Glossary Off
Versions: 1 2 3 4 5 6 7 8 9 10 11 12 13 14 15 16 17 18 19 20 21 22 23 24 25 26 27 28 29 30 31 32 33 34 35 36 37 38 39 40 41 42 43 44 45 46 47 48 49 50

000
ASUS43 KDTX 250901
RWRMI
MICHIGAN HOURLY REGIONAL WEATHER ROUNDUP
NATIONAL WEATHER SERVICE DETROIT/PONTIAC MI
500 AM EDT MON SEP 25 2017

NOTE: "FAIR" INDICATES FEW OR NO CLOUDS BELOW 12,000 FEET WITH NO
SIGNIFICANT WEATHER AND/OR OBSTRUCTION TO VISIBILITY.

MIZ047>049-052>055-059>063-066>070-074>076-081>083-251000-
SOUTHEAST LOWER MICHIGAN

CITY           SKY/WX    TMP DP  RH WIND       PRES   REMARKS
ADRIAN         CLEAR     63  61  93 NE3       30.07S FOG
ALMA           PTCLDY    59  57  92 CALM      30.06S
ANN ARBOR      FOG       60  60 100 CALM      30.06S VSB 1/4
BAD AXE        CLEAR     63  61  93 S3        30.07S
CARO           PTCLDY    59  57  96 CALM      30.05S FOG
DETROIT CITY   PTCLDY    69  65  86 CALM      30.06S
DETROIT        PTCLDY    69  65  86 NE3       30.06S
FLINT          CLEAR     63  61  93 CALM      30.06F
GROSSE ILE     CLEAR     67  65  94 CALM      30.04S
HILLSDALE      MOCLDY    63  61  94 CALM      30.06F FOG
HOWELL         CLEAR     65  64  95 CALM      30.07S FOG

CITY           SKY/WX    TMP DP  RH WIND       PRES   REMARKS
JACKSON        CLEAR     65  62  90 CALM      30.06F
LAMBERTVILLE   FOG       65  63  92 CALM      30.05S VSB 1/4
LANSING        PTCLDY    66  61  84 SE3       30.06F
LAPEER         FAIR      59  58  96 CALM      30.07F FOG
MASON          PTCLDY    67  64  87 SE5       30.06F
MONROE         FOG       65  64  93 CALM      30.04S VSB 1/4
MT. CLEMENS    PTCLDY    64  64 100 NW3       30.05F
PONTIAC        PTCLDY    65  64  97 CALM      30.06F
PORT HOPE        N/A     65  63  93 CALM      30.05S
PORT HURON     FOG       61  59  94 CALM      30.07F VSB 1/4
TRI CITIES     PTCLDY    67  64  90 SW3       30.06S
MIDLAND        FAIR      61  61 100 CALM      30.05S
TROY           PTCLDY    69  65  86 CALM      30.08S
SAGINAW HB     PTCLDY    63  59  88 CALM      30.05S
$$
MIZ043>046-050>051-056>058-064>065-071>073-077>080-251000-
SOUTHWEST LOWER MICHIGAN

CITY           SKY/WX    TMP DP  RH WIND       PRES   REMARKS
BATTLE CREEK   PTCLDY    68  64  87 CALM      30.06S
BENTON HARBOR  CLOUDY    67  58  72 SE7       30.02S
BIG RAPIDS     PTCLDY    58  57  94 CALM      30.05S FOG
COLDWATER      PTCLDY    65  65 100 CALM      30.06S FOG
FREMONT        FAIR      65  60  85 E3        30.03S
HOLLAND        PTCLDY    66  60  81 S5        30.03S
GRAND RAPIDS   PTCLDY    67  63  87 SE7       30.04S
IONIA          FAIR      63  60  91 SE3       30.05S
KALAMAZOO      MOCLDY    66  61  84 CALM      30.05F
LUDINGTON      CLEAR     63  59  87 CALM      30.00F
MARSHALL       CLEAR     65  64  98 CALM      30.06S
MOUNT PLEASANT PTCLDY    62  61  95 CALM      30.05S
MUSKEGON       CLEAR     66  59  78 CALM      30.02S
SOUTH HAVEN    MOCLDY    67  61  79 CALM      30.02S
$$
MIZ016>042-251000-
NORTHERN LOWER MICHIGAN

CITY           SKY/WX    TMP DP  RH WIND       PRES   REMARKS
ALPENA         PTCLDY    61  60  97 CALM      30.04F
BELLAIRE       FOG       59  57  96 CALM      30.02S VSB 1/2
CADILLAC       CLEAR     58  55  88 NW5       30.06S
CHARLEVOIX     CLEAR     67  64  89 SE6       30.03S
FRANKFORT      CLEAR     70  61  74 CALM      30.00S
GAYLORD        CLEAR     64  60  87 CALM      30.06S
GRAYLING       CLEAR     55  53  90 CALM      30.07S
HARBOR SPRINGS CLEAR     63  61  94 CALM      30.01S
HOUGHTON LAKE  CLEAR     62  59  90 CALM      30.07F
MANISTEE       CLEAR     59  58  96 E5        30.01S FOG
OSCODA         CLEAR     63  62  97 SW5       30.05S
PELLSTON       FOG       57  57 100 CALM      30.02R VSB 1/4
ROGERS CITY    CLEAR     69  62  77 SW10      30.03S
TRAVERSE CITY  CLEAR     70  62  76 S3        30.00S
$$
MIZ007>008-015-251000-
EASTERN UPPER MICHIGAN

CITY           SKY/WX    TMP DP  RH WIND       PRES   REMARKS
KINROSS        CLEAR     68  63  84 S6        30.00S
MACKINAC ISLAN CLEAR     69  64  82 S8        30.00S
NEWBERRY       CLEAR     67  66  97 S8        29.98F
S. S. MARIE    CLEAR     65  64  97 E5        29.99F FOG
MUNISING         N/A     70  63  78 S6        29.93F
$$
MIZ004>006-011>014-085-251000-
CENTRAL UPPER MICHIGAN

CITY           SKY/WX    TMP DP  RH WIND       PRES   REMARKS
MANISTIQUE     CLEAR     63  58  81 S3        29.98S
ESCANABA       CLEAR     66  65  96 S6        29.96S
MENOMINEE      CLEAR     66  63  90 CALM      29.97S
SAWYER-GWINN   CLEAR     64  60  88 S7        29.97S
$$
MIZ001>003-009>011-084-251000-
WESTERN UPPER MICHIGAN

CITY           SKY/WX    TMP DP  RH WIND       PRES   REMARKS
IRON MOUNTAIN  CLEAR     66  60  81 SE5       29.95S
HOUGHTON       PTCLDY    72  60  66 SW10      29.89S
COPPER HARBOR    N/A     74  60  61 W9G18     29.85F
IRONWOOD       CLOUDY    71  62  73 S7        29.92R
$$

ABBREVIATIONS USED IN REMARKS
   TC - TEMPERATURE IN CELSIUS
  WCI - WIND CHILL INDEX
   HX - HEAT INDEX
  VSB - VISIBILITY




USA.gov is the U.S. government's official web portal to all federal, state and local government web resources and services.